Howell, MI

1:02 AM EDT on May 26, 2017 (GMT -0400)
Livingston County

Weather History for KOZW - December, 2012

Change the Weather History Date:

Wednesday, December 19, 2012

  Actual Average Record
Temperature  
Mean Temperature 36 °F -  
Max Temperature 42 °F 31 °F 51 °F (2002)
Min Temperature 32 °F 19 °F 0 °F (2004)
Degree Days  
Heating Degree Days 28    
Moisture  
Dew Point 32 °F    
Average Humidity 83    
Maximum Humidity 93    
Minimum Humidity 65    
Precipitation  
Precipitation 0.00 in - - ()
Sea Level Pressure  
Sea Level Pressure 29.97 in    
Wind  
Wind Speed 2 mph (SW)    
Max Wind Speed 7 mph    
Max Gust Speed -    
Visibility 4 miles    
Events      
Averages and records for this station are not official NWS values.
T = Trace of Precipitation, MM = Missing Value Source: NWS Daily Summary

Daily Weather History Graph

Daily Weather History Graph

Search for Another Location

Airport or City:

Trip Planner

Search our weather history database for the weather conditions in past years. The results will help you decide how hot, cold, wet, or windy it might be!

Date:

Astronomy

Dec. 19, 2012 Rise Set
Actual Time 8:01 AM EST 5:04 PM EST
Civil Twilight 7:29 AM EST 5:36 PM EST
Nautical Twilight 6:54 AM EST 6:12 PM EST
Astronomical Twilight 6:19 AM EST 6:46 PM EST
Moon 12:01 PM EST (12/19) No Moon Set
Length of Visible Light 10h 07m
Length of Day
9h 02m
Waxing Crescent, 45% of the Moon is Illuminated
Dec 19
Waxing Crescent
Dec 20
First Quarter
Dec 28
Full
Jan 4
Last Quarter
Jan 11
New

Hourly Weather History & Observations

Time (EST) Temp. Windchill Dew Point Humidity Pressure Visibility Wind Dir Wind Speed Gust Speed Precip Events Conditions
12:15 AM 36.0 °F - 32.9 °F 89% 29.71 in 2.0 mi Calm Calm - N/A   Overcast
12:34 AM 35.8 °F - 32.9 °F 89% 29.71 in 2.0 mi Calm Calm - N/A   Overcast
12:54 AM 36.0 °F - 33.3 °F 90% 29.72 in 2.0 mi Calm Calm - N/A   Overcast
1:15 AM 36.0 °F - 33.3 °F 90% 29.72 in 2.0 mi Calm Calm - N/A   Overcast
1:34 AM 36.0 °F - 33.4 °F 91% 29.73 in 1.5 mi Calm Calm - N/A   Overcast
1:55 AM 35.8 °F - 33.6 °F 92% 29.74 in 1.2 mi Calm Calm - N/A   Overcast
2:15 AM 36.3 °F - 34.0 °F 91% 29.76 in 1.2 mi Calm Calm - N/A   Overcast
2:34 AM 35.4 °F - 32.9 °F 91% 29.77 in 1.5 mi Calm Calm - N/A   Overcast
2:55 AM 35.2 °F - 33.1 °F 92% 29.78 in 1.5 mi Calm Calm - N/A   Overcast
3:15 AM 35.2 °F - 33.1 °F 92% 29.79 in 1.2 mi Calm Calm - N/A   Overcast
3:34 AM 35.2 °F - 33.1 °F 92% 29.79 in 1.2 mi Calm Calm - N/A   Overcast
3:55 AM 35.1 °F - 33.1 °F 92% 29.80 in 1.2 mi Calm Calm - N/A   Overcast
4:15 AM 36.1 °F - 34.2 °F 93% 29.82 in 1.2 mi Calm Calm - N/A   Overcast
4:34 AM 36.9 °F - 34.2 °F 90% 29.83 in 1.0 mi Calm Calm - N/A   Overcast
4:55 AM 37.6 °F - 34.7 °F 89% 29.83 in 1.0 mi Calm Calm - N/A   Overcast
5:14 AM 36.5 °F - 33.3 °F 88% 29.83 in 1.0 mi Calm Calm - N/A   Overcast
5:35 AM 35.4 °F - 32.9 °F 91% 29.83 in 1.5 mi Calm Calm - N/A   Overcast
5:55 AM 36.0 °F 32.1 °F 33.8 °F 92% 29.85 in 1.5 mi West 4.6 mph - N/A   Overcast
6:14 AM 36.0 °F 32.1 °F 33.8 °F 92% 29.87 in 1.5 mi West 4.6 mph - N/A   Overcast
6:35 AM 36.1 °F 32.3 °F 33.8 °F 91% 29.88 in 1.8 mi WNW 4.6 mph - N/A   Overcast
6:55 AM 36.0 °F 30.3 °F 33.4 °F 91% 29.89 in 1.8 mi WNW 6.9 mph - N/A   Overcast
7:14 AM 36.3 °F 31.6 °F 33.8 °F 91% 29.90 in 2.0 mi NW 5.8 mph - N/A   Overcast
7:35 AM 35.6 °F 31.7 °F 32.9 °F 90% 29.91 in 2.5 mi NNW 4.6 mph - N/A   Overcast
7:55 AM 35.6 °F 29.9 °F 32.5 °F 89% 29.91 in 4.0 mi NNW 6.9 mph - N/A   Overcast
8:14 AM 35.1 °F 30.1 °F 32.0 °F 89% 29.93 in 4.0 mi NNW 5.8 mph - N/A   Overcast
8:35 AM 35.6 °F 31.7 °F 32.0 °F 87% 29.93 in 3.0 mi NNW 4.6 mph - N/A   Overcast
8:54 AM 35.8 °F 31.9 °F 32.0 °F 86% 29.95 in 4.0 mi NW 4.6 mph - N/A   Overcast
9:15 AM 36.1 °F 32.3 °F 32.0 °F 85% 29.96 in 4.0 mi NNW 4.6 mph - N/A   Overcast
9:40 AM 36.3 °F 32.5 °F 31.8 °F 84% 29.98 in 4.0 mi WNW 4.6 mph - N/A   Overcast
9:54 AM 36.5 °F 31.8 °F 32.0 °F 84% 29.99 in 4.0 mi West 5.8 mph - N/A   Overcast
10:15 AM 36.3 °F 33.7 °F 32.0 °F 84% 30.01 in 4.0 mi West 3.5 mph - N/A   Overcast
10:35 AM 36.1 °F 32.3 °F 32.0 °F 85% 30.01 in 4.0 mi WNW 4.6 mph - N/A   Overcast
10:54 AM 36.3 °F 30.8 °F 32.0 °F 84% 30.02 in 4.0 mi West 6.9 mph - N/A   Overcast
11:15 AM 36.1 °F 30.6 °F 32.0 °F 85% 30.03 in 5.0 mi West 6.9 mph - N/A   Overcast
11:35 AM 36.5 °F 31.8 °F 32.0 °F 84% 30.04 in 5.0 mi West 5.8 mph - N/A   Haze
11:54 AM 36.9 °F 32.2 °F 32.0 °F 83% 30.04 in 5.0 mi West 5.8 mph - N/A   Haze
12:15 PM 37.0 °F 33.3 °F 31.5 °F 80% 30.03 in 7.0 mi West 4.6 mph - N/A   Overcast
12:35 PM 37.2 °F 33.6 °F 31.6 °F 80% 30.03 in 5.0 mi WNW 4.6 mph - N/A   Haze
12:54 PM 37.4 °F 33.8 °F 31.5 °F 79% 30.03 in 7.0 mi West 4.6 mph - N/A   Overcast
1:15 PM 37.4 °F - 30.6 °F 76% 30.03 in 7.0 mi Calm Calm - N/A   Scattered Clouds
1:35 PM 39.2 °F - 31.1 °F 73% 30.03 in 7.0 mi Calm Calm - N/A   Clear
1:54 PM 39.4 °F 36.1 °F 30.9 °F 72% 30.03 in 7.0 mi West 4.6 mph - N/A   Clear
2:15 PM 40.1 °F - 31.1 °F 70% 30.03 in 7.0 mi Calm Calm - N/A   Scattered Clouds
2:34 PM 39.4 °F - 30.4 °F 70% 30.03 in 7.0 mi Calm Calm - N/A   Scattered Clouds
2:55 PM 40.1 °F - 30.4 °F 68% 30.03 in 7.0 mi Calm Calm - N/A   Clear
3:15 PM 41.2 °F 39.2 °F 31.1 °F 67% 30.04 in 7.0 mi WNW 3.5 mph - N/A   Clear
3:35 PM 41.2 °F - 30.2 °F 65% 30.04 in 10.0 mi Calm Calm - N/A   Clear
3:55 PM 40.1 °F 36.9 °F 30.4 °F 68% 30.04 in 7.0 mi ESE 4.6 mph - N/A   Clear
4:14 PM 40.3 °F - 30.4 °F 68% 30.04 in 7.0 mi Calm Calm - N/A   Clear
4:35 PM 39.4 °F 37.2 °F 30.6 °F 71% 30.05 in 7.0 mi SE 3.5 mph - N/A   Clear
4:55 PM 38.5 °F 35.0 °F 30.4 °F 73% 30.06 in 7.0 mi South 4.6 mph - N/A   Mostly Cloudy
5:14 PM 38.8 °F 35.4 °F 30.6 °F 72% 30.07 in 10.0 mi South 4.6 mph - N/A   Overcast
5:35 PM 39.2 °F 35.0 °F 30.7 °F 72% 30.08 in 10.0 mi South 5.8 mph - N/A   Overcast
5:55 PM 39.2 °F 35.0 °F 30.6 °F 71% 30.08 in 10.0 mi SSE 5.8 mph - N/A   Overcast
6:14 PM 38.5 °F 33.4 °F 30.6 °F 73% 30.08 in 10.0 mi SSE 6.9 mph - N/A   Overcast
6:35 PM 37.4 °F 32.8 °F 30.4 °F 76% 30.08 in 7.0 mi SSE 5.8 mph - N/A   Overcast
6:55 PM 37.0 °F 31.6 °F 30.2 °F 76% 30.09 in 7.0 mi SE 6.9 mph - N/A   Mostly Cloudy
7:14 PM 35.8 °F 31.9 °F 29.7 °F 78% 30.09 in 7.0 mi SE 4.6 mph - N/A   Mostly Cloudy
7:35 PM 34.5 °F 30.4 °F 29.1 °F 81% 30.10 in 7.0 mi ESE 4.6 mph - N/A   Mostly Cloudy
7:55 PM 34.5 °F 31.6 °F 29.8 °F 83% 30.08 in 7.0 mi ENE 3.5 mph - N/A   Scattered Clouds
8:14 PM 34.5 °F - 29.7 °F 82% 30.09 in 7.0 mi Calm Calm - N/A   Clear
8:35 PM 33.1 °F 30.0 °F 28.9 °F 85% 30.09 in 5.0 mi ESE 3.5 mph - N/A   Clear
8:54 PM 32.9 °F 27.5 °F 29.3 °F 87% 30.09 in 5.0 mi SE 5.8 mph - N/A   Scattered Clouds
9:14 PM 33.4 °F 27.3 °F 30.2 °F 88% 30.09 in 4.0 mi SE 6.9 mph - N/A   Clear
9:35 PM 34.2 °F 30.0 °F 30.7 °F 87% 30.10 in 5.0 mi SE 4.6 mph - N/A   Mostly Cloudy
9:54 PM 33.8 °F 27.7 °F 30.6 °F 88% 30.09 in 4.0 mi SE 6.9 mph - N/A   Scattered Clouds
10:14 PM 33.3 °F 27.9 °F 30.2 °F 89% 30.08 in 4.0 mi SE 5.8 mph - N/A   Mostly Cloudy
10:35 PM 33.8 °F 28.6 °F 30.9 °F 89% 30.08 in 4.0 mi SE 5.8 mph - N/A   Scattered Clouds
10:54 PM 33.8 °F 29.6 °F 31.1 °F 90% 30.08 in 4.0 mi ESE 4.6 mph - N/A   Mostly Cloudy
11:15 PM 34.2 °F 29.0 °F 30.9 °F 88% 30.08 in 5.0 mi SE 5.8 mph - N/A   Overcast
11:35 PM 34.0 °F 28.8 °F 30.9 °F 89% 30.07 in 5.0 mi ESE 5.8 mph - N/A   Overcast
11:54 PM 33.8 °F 28.6 °F 30.6 °F 88% 30.06 in 5.0 mi ESE 5.8 mph - N/A   Overcast